Flag for Romania Weather past 2 weeks in Brăila, Romania

Now
53 °F

Clear.


Feels Like: 53 °F
Forecast: 53 / 74 °F
Wind: 1 mph from Southwest

Location: Galati


UV Index: 3 (Moderate)

Visibility: 6 mi


Pressure: 29.93 "Hg

Humidity: 80%

Dew point: 47 °F

Location of BrăilaLocation

Historic Weather in Brăila

°F

Brăila temperature yesterday

Maximum temperature yesterday: 67 °F (at 6:00 PM)
Minimum temperature yesterday: 49 °F (at 7:00 AM)
Average temperature yesterday: 57 °F

Past Weeks' High & Low Weather Summary

 TemperatureHumidityPressure
High76 °F (Apr 9, 6:00 PM)99% (Apr 12, 6:00 AM)30.27 "Hg (Apr 12, 6:00 AM)
Low38 °F (Apr 6, 3:00 AM)31% (Apr 9, 4:00 PM)29.65 "Hg (Apr 18, 7:00 PM)
Average51 °F80%29.95 "Hg
* Reported Apr 6 2:00 AM — Apr 21 1:00 AM, Brăila, Weather by CustomWeather, © 2014

Note: Actual official high and low records may vary slightly from our data, if they occured in-between our weather recording intervals... More about our weather records

Advertising

Historic Weather Conditions — Data for Previous 24 hours

 ConditionsComfort  
Time TempWeatherWind HumidityBarometerVisibility
1:00 AM
Apr 21
52 °FClear.1 mph81%29.93 "Hg6 mi
12:00 AM53 °FClear.1 mph78%29.93 "Hg12 mi
11:00 PM
Apr 20
55 °FClear.1 mph73%29.93 "Hg12 mi
10:00 PM56 °FClear.No wind73%29.92 "Hg12 mi
9:00 PM58 °FClear.1 mph68%29.91 "Hg12 mi
8:00 PM62 °FPassing clouds.2 mph59%29.89 "Hg12 mi
7:00 PM66 °FPassing clouds.2 mph48%29.89 "Hg12 mi
6:00 PM67 °FPassing clouds.1 mph49%29.89 "Hg12 mi
5:00 PM67 °FScattered clouds.1 mph49%29.89 "Hg12 mi
4:00 PM64 °FScattered clouds.1 mph55%29.90 "Hg12 mi
3:00 PM62 °FPartly sunny.2 mph57%29.91 "Hg12 mi
2:00 PM61 °FScattered clouds.1 mph60%29.92 "Hg12 mi
1:00 PM62 °FScattered clouds.1 mph59%29.92 "Hg12 mi
12:00 PM58 °FScattered clouds.2 mph69%29.93 "Hg12 mi
11:00 AM60 °FPassing clouds.1 mph67%29.93 "Hg12 mi
10:00 AM56 °FPassing clouds.2 mph78%29.93 "Hg6 mi
9:00 AM52 °FScattered clouds.3 mph86%29.93 "Hg6 mi
8:00 AM51 °FScattered clouds.3 mph88%29.92 "Hg6 mi
7:00 AM49 °FScattered clouds.2 mph90%29.91 "Hg6 mi
6:00 AM51 °FPassing clouds.1 mph89%29.90 "Hg6 mi
5:00 AM51 °FOvercast.No wind87%29.91 "Hg6 mi
4:00 AM52 °FOvercast.1 mph85%29.91 "Hg6 mi
3:00 AM52 °FOvercast.2 mph86%29.92 "Hg6 mi
Weather by CustomWeather, © 2014

See weather overview